Jackson, Tennessee, United States (38301)
Lat: 35.61N, Lon: 88.81W
Wx Zone: TNZ052
Local Info
Past Weather Observations for Tuesday, October 28, 2014

NOTE: This archive is for the closest National Weather Service station to Jackson. Information may differ from the station used for current weather conditions.

Click here for Long-term Archive

Time Weather Temperature Dewpoint Humidity Pressure Winds Precip Visibility
23:53
Overcast
54°F / 12°C 50°F / 10°C 88% 30.12 in
(1020 mb)
E 6.9 mph
(E 11 kph)
0.01 in
(0.25 mm)
10SM
22:53
Overcast
Light Rain
54°F / 12°C 52°F / 11°C 94% 30.12 in
(1020 mb)
ENE 4.6 mph
(ENE 7 kph)
0.03 in
(0.76 mm)
10SM
21:53
Overcast
Light Rain
54°F / 12°C 52°F / 11°C 94% 30.12 in
(1020 mb)
ENE 5.8 mph
(ENE 9 kph)
0.16 in
(4.06 mm)
10SM
21:38
Overcast
Thunder Storms
54°F / 12°C 52°F / 11°C 94% 30.12 in
(1020 mb)
N 8.1 mph
(N 13 kph)
0.15 in
(3.81 mm)
9SM
20:49
Overcast
Light Rain
54°F / 12°C 52°F / 11°C 94% 30.12 in
(1020 mb)
ENE 5.8 mph
(ENE 9 kph)
0.46 in
(11.68 mm)
4SM
20:48
Overcast
Rain
54°F / 12°C 52°F / 11°C 94% 30.09 in
(1019 mb)
ENE 5.8 mph
(ENE 9 kph)
0.46 in
(11.68 mm)
4SM
20:33
Overcast
Rain
54°F / 12°C 52°F / 11°C 94% 30.12 in
(1020 mb)
N 4.6 mph
(N 7 kph)
0.39 in
(9.91 mm)
3SM
20:25
Overcast
Heavy Rain
54°F / 12°C 52°F / 11°C 94% 30.09 in
(1019 mb)
NE 5.8 mph
(NE 9 kph)
0.34 in
(8.64 mm)
2 1/2SM
20:10
Overcast
Heavy Rain
54°F / 12°C 52°F / 11°C 94% 30.09 in
(1019 mb)
NE 3.5 mph
(NE 6 kph)
0.19 in
(4.83 mm)
3SM
20:05
Overcast
Heavy Rain
54°F / 12°C 52°F / 11°C 94% 30.09 in
(1019 mb)
ENE 9.2 mph
(ENE 15 kph)
0.18 in
(4.57 mm)
1 3/4SM
19:53
Overcast
Rain
54°F / 12°C 52°F / 11°C 94% 30.09 in
(1019 mb)
NE 6.9 mph
(NE 11 kph)
0.11 in
(2.79 mm)
6SM
19:46
Overcast
Light Rain
54°F / 12°C 52°F / 11°C 94% 30.09 in
(1019 mb)
ENE 8.1 mph
(ENE 13 kph)
0.09 in
(2.29 mm)
8SM
19:04
Overcast
Light Rain
55°F / 13°C 52°F / 11°C 88% 30.09 in
(1019 mb)
NE 8.1 mph
(NE 13 kph)
0.00 in
(0.00 mm)
10SM
18:53
Overcast
Thunder Storms
55°F / 13°C 52°F / 11°C 88% 30.09 in
(1019 mb)
NNE 8.1 mph
(NNE 13 kph)
0.02 in
(0.51 mm)
10SM
18:23
Overcast
Thunder Storms
57°F / 14°C 52°F / 11°C 82% 30.09 in
(1019 mb)
N 9.2 mph
(N 15 kph)
- 10SM
17:53
Overcast
57°F / 14°C 52°F / 11°C 82% 30.06 in
(1018 mb)
N 10.4 mph
(N 17 kph)
- 10SM
17:23
Overcast
59°F / 15°C 54°F / 12°C 82% 30.06 in
(1018 mb)
N 9.2 mph
(N 15 kph)
- 10SM
16:53
Overcast
59°F / 15°C 54°F / 12°C 82% 30.06 in
(1018 mb)
N 10.4 mph
(N 17 kph)
- 10SM
15:53
Overcast
61°F / 16°C 57°F / 14°C 88% 30.04 in
(1017 mb)
N 6.9 mph
(N 11 kph)
- 10SM
15:44
Overcast
61°F / 16°C 57°F / 14°C 88% 30.04 in
(1017 mb)
N 8.1 mph
(N 13 kph)
- 10SM
14:53
Mostly Cloudy
63°F / 17°C 59°F / 15°C 88% 30.04 in
(1017 mb)
N 8.1 mph
(N 13 kph)
- 10SM
14:49
Mostly Cloudy
63°F / 17°C 61°F / 16°C 94% 30.04 in
(1017 mb)
N 9.2 mph
(N 15 kph)
- 10SM
14:25
Overcast
70°F / 21°C 64°F / 18°C 83% 30.04 in
(1017 mb)
NNW 10.4 mph
(NNW 17 kph)
- 10SM
13:53
Mostly Cloudy
70°F / 21°C 64°F / 18°C 83% 30.01 in
(1016 mb)
SW 5.8 mph
(SW 9 kph)
0.00 in
(0.00 mm)
10SM
13:21
Overcast
Light Rain
70°F / 21°C 64°F / 18°C 83% 30.04 in
(1017 mb)
SSW 6.9 mph
(SSW 11 kph)
0.00 in
(0.00 mm)
10SM
12:53
Overcast
70°F / 21°C 64°F / 18°C 83% 30.04 in
(1017 mb)
SW 6.9 mph
(SW 11 kph)
0.00 in
(0.00 mm)
10SM
12:18
Overcast
Light Rain
70°F / 21°C 64°F / 18°C 83% 30.04 in
(1017 mb)
SW 10.4 mph
(SW 17 kph)
0.00 in
(0.00 mm)
9SM
11:53
Overcast
70°F / 21°C 64°F / 18°C 83% 30.06 in
(1018 mb)
SW 8.1 mph
(SW 13 kph)
0.00 in
(0.00 mm)
10SM
11:24
Overcast
70°F / 21°C 64°F / 18°C 83% 30.06 in
(1018 mb)
SW 8.1 mph
(SW 13 kph)
0.00 in
(0.00 mm)
10SM
11:10
Overcast
70°F / 21°C 64°F / 18°C 83% 30.06 in
(1018 mb)
SW 8.1 mph
(SW 13 kph)
0.00 in
(0.00 mm)
10SM
11:02
Overcast
70°F / 21°C 64°F / 18°C 83% 30.06 in
(1018 mb)
SW 8.1 mph
(SW 13 kph)
0.00 in
(0.00 mm)
10SM
10:53
Overcast
Light Rain
70°F / 21°C 64°F / 18°C 83% 30.06 in
(1018 mb)
SW 10.4 mph
(SW 17 kph)
0.00 in
(0.00 mm)
10SM
10:12
Overcast
68°F / 20°C 64°F / 18°C 88% 30.06 in
(1018 mb)
SSW 9.2 mph
(SSW 15 kph)
- 10SM
09:53
Overcast
68°F / 20°C 64°F / 18°C 88% 30.06 in
(1018 mb)
SW 10.4 mph
(SW 17 kph)
0.00 in
(0.00 mm)
10SM
09:20
Overcast
66°F / 19°C 64°F / 18°C 94% 30.06 in
(1018 mb)
SSE 8.1 mph
(SSE 13 kph)
0.00 in
(0.00 mm)
9SM
08:53
Overcast
66°F / 19°C 63°F / 17°C 88% 30.06 in
(1018 mb)
SW 8.1 mph
(SW 13 kph)
0.03 in
(0.76 mm)
10SM
08:43
Overcast
66°F / 19°C 63°F / 17°C 88% 30.06 in
(1018 mb)
SW 10.4 mph
(SW 17 kph)
0.03 in
(0.76 mm)
10SM
07:53
Overcast
66°F / 19°C 63°F / 17°C 88% 30.06 in
(1018 mb)
SW 8.1 mph
(SW 13 kph)
- 10SM
06:53
Partly Cloudy
64°F / 18°C 61°F / 16°C 88% 30.04 in
(1017 mb)
SW 9.2 mph
(SW 15 kph)
- 10SM
05:53
Partly Cloudy
64°F / 18°C 61°F / 16°C 88% 30.01 in
(1016 mb)
SSE 11.5 mph
(SSE 19 kph)
- 10SM
04:53
Clear
64°F / 18°C 61°F / 16°C 88% 30.01 in
(1016 mb)
SSE 13.8 mph
(SSE 22 kph)
- 10SM
03:53
Clear
66°F / 19°C 61°F / 16°C 83% 29.98 in
(1015 mb)
SSE 11.5 mph
(SSE 19 kph)
- 10SM
02:53
Mostly Cloudy
66°F / 19°C 59°F / 15°C 78% 29.98 in
(1015 mb)
S 6.9 mph
(S 11 kph)
- 10SM
01:53
Clear
64°F / 18°C 59°F / 15°C 83% 29.98 in
(1015 mb)
S 5.8 mph
(S 9 kph)
- 10SM
00:53
Clear
64°F / 18°C 59°F / 15°C 83% 29.98 in
(1015 mb)
S 6.9 mph
(S 11 kph)
- 10SM
Time Weather Temperature Dewpoint Humidity Pressure Winds Precip Visibility


Weather for websites

WeatherForYou.com, LLC is not responsible for any damages or problems caused by this service. Current weather conditions are obtained from the closest station including government and personal stations which may have varying degrees of accuracy. Weather forecasts are derived from the NOAA NDFD. Like all things, this site belongs to Jesus Christ... He just trusts me to maintain it. If you have any questions or comments email webmaster@weatherforyou.com

Copyright © 2014, WeatherForYou.com LLC. All rights reserved.